Tracking 18942 objects as of 17-Jan-2018
HD Live streaming from Space Station
objects crossing your sky now

FENGYUN 1C DEB

Track FENGYUN 1C DEB now!
10-day predictions


NORAD ID: 30943
Int'l Code: 1999-025BAH
Perigee: 855.2 km
Apogee: 929.5 km
Inclination: 99.1 °
Period: 102.7 minutes
Semi major axis: 7263 km
RCS: 0.003 m2 (small)
Launch date: May 10, 1999
Source: People's Republic of China (PRC)
Launch site: Taiyaun Space Center, China (TSC)

Note: This is SATELLITE DEBRIS
aabbcc
Your satellite tracking list
Your tracking list is empty




NASA's NSSDC Master Catalog

Two Line Element Set (TLE):
1 30943U 99025BAH 18017.32397432 -.00000226  00000-0 -11667-3 0  9990
2 30943  99.0862  48.2099 0051129 176.8923 183.2570 14.02474474554839
Source of the keplerian elements: AFSPC